site,time,unit,value
Station Street,10/11/2023 00:00:00,MW,2.6686172
Station Street,10/11/2023 00:05:00,MW,2.650878
Station Street,10/11/2023 00:10:00,MW,2.6926055
Station Street,10/11/2023 00:15:00,MW,2.7066104
Station Street,10/11/2023 00:20:00,MW,2.671463
Station Street,10/11/2023 00:25:00,MW,2.6365879
Station Street,10/11/2023 00:30:00,MW,2.6443033
Station Street,10/11/2023 00:35:00,MW,2.6371791
Station Street,10/11/2023 00:40:00,MW,2.574188
Station Street,10/11/2023 00:45:00,MW,2.6412237
Station Street,10/11/2023 00:50:00,MW,2.588506
Station Street,10/11/2023 00:55:00,MW,2.6266332
Station Street,10/11/2023 01:00:00,MW,2.6393044
Station Street,10/11/2023 01:05:00,MW,2.6468983
Station Street,10/11/2023 01:10:00,MW,2.631925
Station Street,10/11/2023 01:15:00,MW,2.574678
Station Street,10/11/2023 01:20:00,MW,2.641267
Station Street,10/11/2023 01:25:00,MW,2.6053464
Station Street,10/11/2023 01:30:00,MW,2.6406941
Station Street,10/11/2023 01:35:00,MW,2.6384876
Station Street,10/11/2023 01:40:00,MW,2.6393592
Station Street,10/11/2023 01:45:00,MW,2.620565
Station Street,10/11/2023 01:50:00,MW,2.5668256
Station Street,10/11/2023 01:55:00,MW,2.5781393
Station Street,10/11/2023 02:00:00,MW,2.610433
Station Street,10/11/2023 02:05:00,MW,2.6361873
Station Street,10/11/2023 02:10:00,MW,2.6412835
Station Street,10/11/2023 02:15:00,MW,2.6208441
Station Street,10/11/2023 02:20:00,MW,2.6420782
Station Street,10/11/2023 02:25:00,MW,2.6663656
Station Street,10/11/2023 02:30:00,MW,2.6334205
Station Street,10/11/2023 02:35:00,MW,2.6135595
Station Street,10/11/2023 02:40:00,MW,2.5734744
Station Street,10/11/2023 02:45:00,MW,2.568615
Station Street,10/11/2023 02:50:00,MW,2.5688858
Station Street,10/11/2023 02:55:00,MW,2.5633366
Station Street,10/11/2023 03:00:00,MW,2.565625
Station Street,10/11/2023 03:05:00,MW,2.5361195
Station Street,10/11/2023 03:10:00,MW,2.6022642
Station Street,10/11/2023 03:15:00,MW,2.545749
Station Street,10/11/2023 03:20:00,MW,2.5495179
Station Street,10/11/2023 03:25:00,MW,2.496844
Station Street,10/11/2023 03:30:00,MW,2.546963
Station Street,10/11/2023 03:35:00,MW,2.5317447
Station Street,10/11/2023 03:40:00,MW,2.5946023
Station Street,10/11/2023 03:45:00,MW,2.6376455
Station Street,10/11/2023 03:50:00,MW,2.6220489
Station Street,10/11/2023 03:55:00,MW,2.6471837
Station Street,10/11/2023 04:00:00,MW,2.6529913
Station Street,10/11/2023 04:05:00,MW,2.6451364
Station Street,10/11/2023 04:10:00,MW,2.7422564
Station Street,10/11/2023 04:15:00,MW,2.7381163
Station Street,10/11/2023 04:20:00,MW,2.7296555
Station Street,10/11/2023 04:25:00,MW,2.732787
Station Street,10/11/2023 04:30:00,MW,2.8241954
Station Street,10/11/2023 04:35:00,MW,2.8505683
Station Street,10/11/2023 04:40:00,MW,2.846978
Station Street,10/11/2023 04:45:00,MW,2.8174
Station Street,10/11/2023 04:50:00,MW,2.881495
Station Street,10/11/2023 04:55:00,MW,2.8484201
Station Street,10/11/2023 05:00:00,MW,2.905677
Station Street,10/11/2023 05:05:00,MW,2.9328544
Station Street,10/11/2023 05:10:00,MW,2.8192618
Station Street,10/11/2023 05:15:00,MW,2.8384788
Station Street,10/11/2023 05:20:00,MW,2.876257
Station Street,10/11/2023 05:25:00,MW,2.825288
Station Street,10/11/2023 05:30:00,MW,2.8624558
Station Street,10/11/2023 05:35:00,MW,2.8372529
Station Street,10/11/2023 05:40:00,MW,2.922617
Station Street,10/11/2023 05:45:00,MW,2.9952078
Station Street,10/11/2023 05:50:00,MW,3.0585299
Station Street,10/11/2023 05:55:00,MW,3.1771991
Station Street,10/11/2023 06:00:00,MW,3.275185
Station Street,10/11/2023 06:05:00,MW,3.4272363
Station Street,10/11/2023 06:10:00,MW,3.3925188
Station Street,10/11/2023 06:15:00,MW,3.3864908
Station Street,10/11/2023 06:20:00,MW,3.4284854
Station Street,10/11/2023 06:25:00,MW,3.4471953
Station Street,10/11/2023 06:30:00,MW,3.4827182
Station Street,10/11/2023 06:35:00,MW,3.5507162
Station Street,10/11/2023 06:40:00,MW,3.5015867
Station Street,10/11/2023 06:45:00,MW,3.5938816
Station Street,10/11/2023 06:50:00,MW,3.6452715
Station Street,10/11/2023 06:55:00,MW,3.7123117
Station Street,10/11/2023 07:00:00,MW,3.9012616
Station Street,10/11/2023 07:05:00,MW,3.9151149
Station Street,10/11/2023 07:10:00,MW,3.8348463
Station Street,10/11/2023 07:15:00,MW,3.8044777
Station Street,10/11/2023 07:20:00,MW,3.8969688
Station Street,10/11/2023 07:25:00,MW,3.96494
Station Street,10/11/2023 07:30:00,MW,4.1008906
Station Street,10/11/2023 07:35:00,MW,4.14948
Station Street,10/11/2023 07:40:00,MW,4.1986012
Station Street,10/11/2023 07:45:00,MW,4.250602
Station Street,10/11/2023 07:50:00,MW,4.2412596
Station Street,10/11/2023 07:55:00,MW,4.3737693
Station Street,10/11/2023 08:00:00,MW,4.451802
Station Street,10/11/2023 08:05:00,MW,4.480208
Station Street,10/11/2023 08:10:00,MW,4.564344
Station Street,10/11/2023 08:15:00,MW,4.6000175
Station Street,10/11/2023 08:20:00,MW,4.6346927
Station Street,10/11/2023 08:25:00,MW,4.769165
Station Street,10/11/2023 08:30:00,MW,4.835109
Station Street,10/11/2023 08:35:00,MW,4.91914
Station Street,10/11/2023 08:40:00,MW,4.958436
Station Street,10/11/2023 08:45:00,MW,5.025923
Station Street,10/11/2023 08:50:00,MW,5.1218643
Station Street,10/11/2023 08:55:00,MW,5.3394833
Station Street,10/11/2023 09:00:00,MW,5.3809676
Station Street,10/11/2023 09:05:00,MW,5.4894757
Station Street,10/11/2023 09:10:00,MW,5.3444953
Station Street,10/11/2023 09:15:00,MW,5.3137465
Station Street,10/11/2023 09:20:00,MW,5.482882
Station Street,10/11/2023 09:25:00,MW,5.528547
Station Street,10/11/2023 09:30:00,MW,5.4944763
Station Street,10/11/2023 09:35:00,MW,5.6026235
Station Street,10/11/2023 09:40:00,MW,5.504615
Station Street,10/11/2023 09:45:00,MW,5.5371513
Station Street,10/11/2023 09:50:00,MW,5.6166153
Station Street,10/11/2023 09:55:00,MW,5.6433387
Station Street,10/11/2023 10:00:00,MW,5.685717
Station Street,10/11/2023 10:05:00,MW,5.826194
Station Street,10/11/2023 10:10:00,MW,5.6923766
Station Street,10/11/2023 10:15:00,MW,5.723664
Station Street,10/11/2023 10:20:00,MW,5.8154273
Station Street,10/11/2023 10:25:00,MW,5.769688
Station Street,10/11/2023 10:30:00,MW,5.723305
Station Street,10/11/2023 10:35:00,MW,5.7503786
Station Street,10/11/2023 10:40:00,MW,5.812325
Station Street,10/11/2023 10:45:00,MW,5.8369846
Station Street,10/11/2023 10:50:00,MW,5.8866143
Station Street,10/11/2023 10:55:00,MW,5.944914
Station Street,10/11/2023 11:00:00,MW,6.001341
Station Street,10/11/2023 11:05:00,MW,6.0760713
Station Street,10/11/2023 11:10:00,MW,6.1159306
Station Street,10/11/2023 11:15:00,MW,6.13139
Station Street,10/11/2023 11:20:00,MW,6.171987
Station Street,10/11/2023 11:25:00,MW,6.1260285
Station Street,10/11/2023 11:30:00,MW,5.946032
Station Street,10/11/2023 11:35:00,MW,6.038302
Station Street,10/11/2023 11:40:00,MW,5.9992905
Station Street,10/11/2023 11:45:00,MW,6.008427
Station Street,10/11/2023 11:50:00,MW,5.9019175
Station Street,10/11/2023 11:55:00,MW,5.8329043
Station Street,10/11/2023 12:00:00,MW,5.8567104
Station Street,10/11/2023 12:05:00,MW,5.8757396
Station Street,10/11/2023 12:10:00,MW,5.9581585
Station Street,10/11/2023 12:15:00,MW,5.9557543
Station Street,10/11/2023 12:20:00,MW,5.9270015
Station Street,10/11/2023 12:25:00,MW,5.8857145
Station Street,10/11/2023 12:30:00,MW,5.989734
Station Street,10/11/2023 12:35:00,MW,5.883436
Station Street,10/11/2023 12:40:00,MW,5.882973
Station Street,10/11/2023 12:45:00,MW,5.809067
Station Street,10/11/2023 12:50:00,MW,5.732347
Station Street,10/11/2023 12:55:00,MW,5.8376007
Station Street,10/11/2023 13:00:00,MW,5.8939466
Station Street,10/11/2023 13:05:00,MW,5.9520626
Station Street,10/11/2023 13:10:00,MW,5.9436736
Station Street,10/11/2023 13:15:00,MW,5.879464
Station Street,10/11/2023 13:20:00,MW,5.9662714
Station Street,10/11/2023 13:25:00,MW,5.9603486
Station Street,10/11/2023 13:30:00,MW,5.904438
Station Street,10/11/2023 13:35:00,MW,5.858856
Station Street,10/11/2023 13:40:00,MW,5.9405746
Station Street,10/11/2023 13:45:00,MW,5.9350805
Station Street,10/11/2023 13:50:00,MW,5.856758
Station Street,10/11/2023 13:55:00,MW,5.8045783
Station Street,10/11/2023 14:00:00,MW,5.775903
Station Street,10/11/2023 14:05:00,MW,5.788556
Station Street,10/11/2023 14:10:00,MW,5.7817965
Station Street,10/11/2023 14:15:00,MW,5.7711987
Station Street,10/11/2023 14:20:00,MW,5.708367
Station Street,10/11/2023 14:25:00,MW,5.8364425
Station Street,10/11/2023 14:30:00,MW,5.8051057
Station Street,10/11/2023 14:35:00,MW,5.6739774
Station Street,10/11/2023 14:40:00,MW,5.7166452
Station Street,10/11/2023 14:45:00,MW,5.686517
Station Street,10/11/2023 14:50:00,MW,5.725836
Station Street,10/11/2023 14:55:00,MW,5.642092
Station Street,10/11/2023 15:00:00,MW,5.630345
Station Street,10/11/2023 15:05:00,MW,5.638403
Station Street,10/11/2023 15:10:00,MW,5.5939612
Station Street,10/11/2023 15:15:00,MW,5.5568914
Station Street,10/11/2023 15:20:00,MW,5.5980277
Station Street,10/11/2023 15:25:00,MW,5.5926623
Station Street,10/11/2023 15:30:00,MW,5.552077
Station Street,10/11/2023 15:35:00,MW,5.5846477
Station Street,10/11/2023 15:40:00,MW,5.6542397
Station Street,10/11/2023 15:45:00,MW,5.554112
Station Street,10/11/2023 15:50:00,MW,5.571142
Station Street,10/11/2023 15:55:00,MW,5.566689
Station Street,10/11/2023 16:00:00,MW,5.482049
Station Street,10/11/2023 16:05:00,MW,5.4388323
Station Street,10/11/2023 16:10:00,MW,5.4441123
Station Street,10/11/2023 16:15:00,MW,5.5319796
Station Street,10/11/2023 16:20:00,MW,5.5066
Station Street,10/11/2023 16:25:00,MW,5.42757
Station Street,10/11/2023 16:30:00,MW,5.328332
Station Street,10/11/2023 16:35:00,MW,5.2165866
Station Street,10/11/2023 16:40:00,MW,5.2160625
Station Street,10/11/2023 16:45:00,MW,5.207987
Station Street,10/11/2023 16:50:00,MW,5.1554613
Station Street,10/11/2023 16:55:00,MW,5.136173
Station Street,10/11/2023 17:00:00,MW,5.1291327
Station Street,10/11/2023 17:05:00,MW,5.0690417
Station Street,10/11/2023 17:10:00,MW,4.9710035
Station Street,10/11/2023 17:15:00,MW,4.951872
Station Street,10/11/2023 17:20:00,MW,4.8644786
Station Street,10/11/2023 17:25:00,MW,4.814309
Station Street,10/11/2023 17:30:00,MW,4.717578
Station Street,10/11/2023 17:35:00,MW,4.6337476
Station Street,10/11/2023 17:40:00,MW,4.6048613
Station Street,10/11/2023 17:45:00,MW,4.670913
Station Street,10/11/2023 17:50:00,MW,4.6478004
Station Street,10/11/2023 17:55:00,MW,4.628257
Station Street,10/11/2023 18:00:00,MW,4.5252075
Station Street,10/11/2023 18:05:00,MW,4.4154496
Station Street,10/11/2023 18:10:00,MW,4.3350706
Station Street,10/11/2023 18:15:00,MW,4.5548687
Station Street,10/11/2023 18:20:00,MW,4.551673
Station Street,10/11/2023 18:25:00,MW,4.5047903
Station Street,10/11/2023 18:30:00,MW,4.490044
Station Street,10/11/2023 18:35:00,MW,4.3169694
Station Street,10/11/2023 18:40:00,MW,4.3684616
Station Street,10/11/2023 18:45:00,MW,4.3563147
Station Street,10/11/2023 18:50:00,MW,4.36573
Station Street,10/11/2023 18:55:00,MW,4.3696637
Station Street,10/11/2023 19:00:00,MW,4.372501
Station Street,10/11/2023 19:05:00,MW,4.4531784
Station Street,10/11/2023 19:10:00,MW,4.3453736
Station Street,10/11/2023 19:15:00,MW,4.3414783
Station Street,10/11/2023 19:20:00,MW,4.2585683
Station Street,10/11/2023 19:25:00,MW,4.2016234
Station Street,10/11/2023 19:30:00,MW,4.207486
Station Street,10/11/2023 19:35:00,MW,4.1843724
Station Street,10/11/2023 19:40:00,MW,4.2859297
Station Street,10/11/2023 19:45:00,MW,4.246338
Station Street,10/11/2023 19:50:00,MW,4.0810966
Station Street,10/11/2023 19:55:00,MW,4.104423
Station Street,10/11/2023 20:00:00,MW,3.9562807
Station Street,10/11/2023 20:05:00,MW,3.9670036
Station Street,10/11/2023 20:10:00,MW,3.8486803
Station Street,10/11/2023 20:15:00,MW,3.8270502
Station Street,10/11/2023 20:20:00,MW,3.7219486
Station Street,10/11/2023 20:25:00,MW,3.777108
Station Street,10/11/2023 20:30:00,MW,3.7035956
Station Street,10/11/2023 20:35:00,MW,3.6230607
Station Street,10/11/2023 20:40:00,MW,3.633055
Station Street,10/11/2023 20:45:00,MW,3.6387746
Station Street,10/11/2023 20:50:00,MW,3.570646
Station Street,10/11/2023 20:55:00,MW,3.4863071
Station Street,10/11/2023 21:00:00,MW,3.4258924
Station Street,10/11/2023 21:05:00,MW,3.3772695
Station Street,10/11/2023 21:10:00,MW,3.3706658
Station Street,10/11/2023 21:15:00,MW,3.4379733
Station Street,10/11/2023 21:20:00,MW,3.3932693
Station Street,10/11/2023 21:25:00,MW,3.389092
Station Street,10/11/2023 21:30:00,MW,3.3195894
Station Street,10/11/2023 21:35:00,MW,3.2660193
Station Street,10/11/2023 21:40:00,MW,3.1950145
Station Street,10/11/2023 21:45:00,MW,3.1883686
Station Street,10/11/2023 21:50:00,MW,3.2036173
Station Street,10/11/2023 21:55:00,MW,3.1656768
Station Street,10/11/2023 22:00:00,MW,3.1947923
Station Street,10/11/2023 22:05:00,MW,3.1353948
Station Street,10/11/2023 22:10:00,MW,3.1186943
Station Street,10/11/2023 22:15:00,MW,3.0464437
Station Street,10/11/2023 22:20:00,MW,2.9453635
Station Street,10/11/2023 22:25:00,MW,2.8466663
Station Street,10/11/2023 22:30:00,MW,2.8305752
Station Street,10/11/2023 22:35:00,MW,2.823339
Station Street,10/11/2023 22:40:00,MW,2.8536115
Station Street,10/11/2023 22:45:00,MW,2.8045595
Station Street,10/11/2023 22:50:00,MW,2.8226736
Station Street,10/11/2023 22:55:00,MW,2.7407103
Station Street,10/11/2023 23:00:00,MW,2.7133532
Station Street,10/11/2023 23:05:00,MW,2.7788606
Station Street,10/11/2023 23:10:00,MW,2.7681806
Station Street,10/11/2023 23:15:00,MW,2.7591016
Station Street,10/11/2023 23:20:00,MW,2.7539027
Station Street,10/11/2023 23:25:00,MW,2.7110922
Station Street,10/11/2023 23:30:00,MW,2.669402
Station Street,10/11/2023 23:35:00,MW,2.6326623
Station Street,10/11/2023 23:40:00,MW,2.6395044
Station Street,10/11/2023 23:45:00,MW,2.664391
Station Street,10/11/2023 23:50:00,MW,2.6233292
Station Street,10/11/2023 23:55:00,MW,2.567196
